N8358U KMSY-KCLT

Flight info

Callsign N8358U
Flight time N/A
Altitude 29000
Route CATLN BESTT JONZE5
Aircraft C700/M-SDFGZLB1PBNO2/L

Departure

Time 2026-05-05 17:07
Airport Louis Armstrong New Orleans International Airport (KMSY)

Arrival

Time N/A
Airport Charlotte Douglas International Airport (KCLT)
Time Latitude Longitude Altitude Speed Heading
2026-05-05 16:55 29.99768 -90.26509 7 ft 0 kts 20°
2026-05-05 17:01 29.99777 -90.26504 16 ft 5 kts 31°
2026-05-05 17:01 29.99784 -90.26434 6 ft 11 kts 103°
2026-05-05 17:02 29.99720 -90.26410 6 ft 11 kts 188°
2026-05-05 17:02 29.99671 -90.26459 7 ft 10 kts 265°
2026-05-05 17:02 29.99657 -90.26542 8 ft 11 kts 229°
2026-05-05 17:02 29.99587 -90.26575 8 ft 11 kts 198°
2026-05-05 17:03 29.99532 -90.26634 9 ft 11 kts 249°
2026-05-05 17:03 29.99539 -90.26727 9 ft 13 kts 287°
2026-05-05 17:03 29.99566 -90.26826 10 ft 13 kts 288°
2026-05-05 17:03 29.99593 -90.26937 10 ft 16 kts 285°
2026-05-05 17:04 29.99625 -90.27072 7 ft 19 kts 285°
2026-05-05 17:04 29.99665 -90.27230 5 ft 22 kts 287°
2026-05-05 17:04 29.99707 -90.27402 3 ft 23 kts 285°
2026-05-05 17:04 29.99748 -90.27573 4 ft 18 kts 282°
2026-05-05 17:05 29.99713 -90.27669 3 ft 12 kts 211°
2026-05-05 17:05 29.99648 -90.27696 1 ft 0 kts 197°
2026-05-05 17:05 29.99614 -90.27709 1 ft 10 kts 198°
2026-05-05 17:06 29.99548 -90.27693 1 ft 11 kts 109°
2026-05-05 17:06 29.99485 -90.27433 3 ft 71 kts 105°
2026-05-05 17:06 29.99279 -90.26578 13 ft 147 kts 105°
2026-05-05 17:06 29.98981 -90.25254 415 ft 189 kts 100°
2026-05-05 17:07 29.99389 -90.23755 1329 ft 214 kts 47°
2026-05-05 17:07 30.00652 -90.22780 2605 ft 223 kts 33°
2026-05-05 17:07 30.01924 -90.21655 3726 ft 242 kts 46°
2026-05-05 17:07 30.03019 -90.20057 4742 ft 266 kts 58°
2026-05-05 17:08 30.03997 -90.18232 6069 ft 273 kts 59°
2026-05-05 17:08 30.05088 -90.16360 7369 ft 282 kts 54°
2026-05-05 17:08 30.06288 -90.14531 8683 ft 289 kts 52°
2026-05-05 17:08 30.07481 -90.12661 9981 ft 296 kts 53°
2026-05-05 17:09 30.08688 -90.10637 10865 ft 319 kts 54°
2026-05-05 17:09 30.09975 -90.08452 11925 ft 332 kts 54°
2026-05-05 17:09 30.11316 -90.06249 13232 ft 340 kts 53°
2026-05-05 17:09 30.12719 -90.04004 14377 ft 348 kts 52°
2026-05-05 17:10 30.14140 -90.01699 15471 ft 356 kts 52°
2026-05-05 17:10 30.15565 -89.99321 16550 ft 364 kts 52°
2026-05-05 17:10 30.16991 -89.96940 17592 ft 371 kts 51°
2026-05-05 17:10 30.18493 -89.94487 18578 ft 378 kts 49°
2026-05-05 17:11 30.20039 -89.91990 19470 ft 384 kts 49°
2026-05-05 17:11 30.21595 -89.89433 20342 ft 392 kts 50°
2026-05-05 17:11 30.23160 -89.86817 21195 ft 399 kts 50°
2026-05-05 17:11 30.24734 -89.84202 22024 ft 405 kts 49°
2026-05-05 17:12 30.26374 -89.81528 22855 ft 411 kts 48°
2026-05-05 17:12 30.28044 -89.78802 23658 ft 418 kts 49°
2026-05-05 17:12 30.29718 -89.76018 24339 ft 423 kts 49°
2026-05-05 17:12 30.31400 -89.73198 25049 ft 428 kts 49°
2026-05-05 17:13 30.33115 -89.70367 25739 ft 432 kts 48°
2026-05-05 17:13 30.34860 -89.67518 26412 ft 436 kts 47°
2026-05-05 17:13 30.36612 -89.64628 27056 ft 441 kts 48°
2026-05-05 17:13 30.38364 -89.61691 27703 ft 446 kts 48°
2026-05-05 17:14 30.40138 -89.58720 28353 ft 450 kts 48°
2026-05-05 17:14 30.41938 -89.55750 28963 ft 454 kts 47°
2026-05-05 17:14 30.43806 -89.52699 29011 ft 473 kts 47°
2026-05-05 17:14 30.45731 -89.49514 29017 ft 492 kts 49°
2026-05-05 17:15 30.47705 -89.46180 29018 ft 510 kts 49°
2026-05-05 17:15 30.49747 -89.42725 29016 ft 523 kts 49°
2026-05-05 17:15 30.53943 -89.35786 29016 ft 526 kts 48°
2026-05-05 17:16 30.58098 -89.28856 29014 ft 526 kts 49°
2026-05-05 17:16 30.62232 -89.21862 29016 ft 524 kts 49°
2026-05-05 17:17 30.66421 -89.14950 29002 ft 523 kts 49°
2026-05-05 17:17 30.70525 -89.07963 29006 ft 523 kts 49°
2026-05-05 17:18 30.74667 -89.01029 29004 ft 521 kts 48°
2026-05-05 17:18 30.78812 -88.94089 29006 ft 522 kts 49°
2026-05-05 17:19 30.82855 -88.87157 29007 ft 521 kts 49°
2026-05-05 17:19 30.87008 -88.80257 29002 ft 520 kts 49°
2026-05-05 17:20 30.91079 -88.73276 29010 ft 521 kts 50°
2026-05-05 17:20 30.95176 -88.66328 29014 ft 519 kts 48°
2026-05-05 17:21 30.98612 -88.60580 29013 ft 520 kts 49°
2026-05-05 17:22 31.05377 -88.48954 29016 ft 520 kts 48°
2026-05-05 17:22 31.08840 -88.43146 29011 ft 520 kts 49°
2026-05-05 17:23 31.12848 -88.36156 29003 ft 521 kts 49°
2026-05-05 17:23 31.16962 -88.29192 29011 ft 520 kts 48°
2026-05-05 17:24 31.21041 -88.22196 29013 ft 521 kts 50°
2026-05-05 17:24 31.25057 -88.15196 29009 ft 520 kts 49°
2026-05-05 17:25 31.29181 -88.08237 29014 ft 520 kts 49°
2026-05-05 17:25 31.33202 -88.01168 29011 ft 521 kts 50°
2026-05-05 17:26 31.37253 -87.94225 29017 ft 518 kts 48°
2026-05-05 17:26 31.41313 -87.87235 29017 ft 519 kts 50°
2026-05-05 17:27 31.45304 -87.80188 29019 ft 518 kts 49°
2026-05-05 17:27 31.49391 -87.73236 29016 ft 518 kts 49°
2026-05-05 17:28 31.53354 -87.66220 29025 ft 518 kts 50°
2026-05-05 17:28 31.57384 -87.59223 29018 ft 516 kts 48°
2026-05-05 17:29 31.61417 -87.52242 29023 ft 517 kts 50°
2026-05-05 17:29 31.65376 -87.45175 29018 ft 516 kts 49°
2026-05-05 17:30 31.69396 -87.38272 29016 ft 515 kts 49°
2026-05-05 17:30 31.73348 -87.31236 29000 ft 516 kts 50°
2026-05-05 17:31 31.77324 -87.24235 28991 ft 514 kts 49°
2026-05-05 17:31 31.81333 -87.17262 28970 ft 514 kts 50°
2026-05-05 17:32 31.85245 -87.10203 28958 ft 514 kts 50°
2026-05-05 17:32 31.89250 -87.03252 28940 ft 513 kts 49°
2026-05-05 17:33 31.93152 -86.96266 28953 ft 514 kts 51°
2026-05-05 17:33 31.97084 -86.89247 28959 ft 512 kts 49°
2026-05-05 17:34 32.01065 -86.82283 28972 ft 513 kts 50°
2026-05-05 17:34 32.04939 -86.75225 28981 ft 512 kts 51°
2026-05-05 17:35 32.08882 -86.68297 28979 ft 511 kts 50°
2026-05-05 17:35 32.12796 -86.61267 28989 ft 512 kts 51°
2026-05-05 17:36 32.16688 -86.54216 29035 ft 511 kts 50°
2026-05-05 17:36 32.20650 -86.47241 29052 ft 511 kts 51°
2026-05-05 17:37 32.24479 -86.40203 29062 ft 511 kts 51°
2026-05-05 17:37 32.28409 -86.33208 29059 ft 510 kts 50°
2026-05-05 17:38 32.32308 -86.26174 29039 ft 511 kts 52°
2026-05-05 17:38 32.36161 -86.19102 29030 ft 510 kts 51°
2026-05-05 17:39 32.40081 -86.12128 29025 ft 508 kts 50°
2026-05-05 17:39 32.43901 -86.05085 29024 ft 509 kts 51°
2026-05-05 17:40 32.47758 -85.98113 29030 ft 509 kts 50°
2026-05-05 17:40 32.51644 -85.91066 29036 ft 510 kts 51°
2026-05-05 17:41 32.55470 -85.83975 29039 ft 510 kts 50°
2026-05-05 17:41 32.59360 -85.76983 29056 ft 511 kts 50°
2026-05-05 17:42 32.63199 -85.69850 29067 ft 512 kts 51°
2026-05-05 17:42 32.67074 -85.62753 29079 ft 512 kts 50°
2026-05-05 17:43 32.70963 -85.55659 29086 ft 513 kts 51°
2026-05-05 17:43 32.74763 -85.48531 29081 ft 513 kts 51°
2026-05-05 17:44 32.78675 -85.41434 29077 ft 513 kts 50°
2026-05-05 17:44 32.82512 -85.34254 29066 ft 514 kts 52°
2026-05-05 17:45 32.86363 -85.27101 29074 ft 513 kts 50°
2026-05-05 17:45 32.90250 -85.19977 29079 ft 514 kts 51°
2026-05-05 17:46 32.94057 -85.12747 29093 ft 514 kts 51°
2026-05-05 17:46 32.97924 -85.05658 29093 ft 513 kts 50°
2026-05-05 17:47 33.01753 -84.98457 29090 ft 514 kts 52°
2026-05-05 17:47 33.05563 -84.91266 29084 ft 512 kts 51°
2026-05-05 17:48 33.09442 -84.84123 29082 ft 513 kts 51°
2026-05-05 17:48 33.13213 -84.76883 29067 ft 513 kts 51°
2026-05-05 17:49 33.17050 -84.69758 29004 ft 512 kts 50°
2026-05-05 17:49 33.20863 -84.62562 29009 ft 513 kts 52°
2026-05-05 17:50 33.24638 -84.55322 29004 ft 511 kts 51°
2026-05-05 17:50 33.28489 -84.48185 29004 ft 511 kts 51°
2026-05-05 17:51 33.32205 -84.40991 29043 ft 511 kts 52°
2026-05-05 17:51 33.36010 -84.33814 29043 ft 509 kts 50°
2026-05-05 17:52 33.39801 -84.26641 29042 ft 510 kts 52°
2026-05-05 17:52 33.43520 -84.19400 29037 ft 509 kts 51°
2026-05-05 17:53 33.47335 -84.12266 29012 ft 509 kts 51°
2026-05-05 17:53 33.51051 -84.05030 28984 ft 509 kts 52°
2026-05-05 17:54 33.54771 -83.97890 28989 ft 508 kts 51°
2026-05-05 17:54 33.58485 -83.90663 28993 ft 513 kts 57°
2026-05-05 17:55 33.60871 -83.82486 28990 ft 522 kts 70°
2026-05-05 17:55 33.62853 -83.74093 28994 ft 520 kts 68°
2026-05-05 17:56 33.65031 -83.65869 28990 ft 520 kts 69°
2026-05-05 17:56 33.67255 -83.57632 28975 ft 513 kts 59°
2026-05-05 17:57 33.70727 -83.50229 28973 ft 507 kts 53°
2026-05-05 17:57 33.74266 -83.42886 28978 ft 508 kts 54°
2026-05-05 17:58 33.77777 -83.35576 28978 ft 506 kts 53°
2026-05-05 17:58 33.81393 -83.28287 28986 ft 507 kts 54°
2026-05-05 17:59 33.84972 -83.21046 28985 ft 504 kts 51°
2026-05-05 17:59 33.88902 -83.14040 28983 ft 506 kts 50°
2026-05-05 18:00 33.92747 -83.06872 28979 ft 511 kts 52°
2026-05-05 18:00 33.96615 -82.99667 28989 ft 511 kts 50°
2026-05-05 18:01 34.00564 -82.92581 28995 ft 514 kts 51°
2026-05-05 18:01 34.04396 -82.85259 28994 ft 516 kts 51°
2026-05-05 18:02 34.08365 -82.78034 28995 ft 516 kts 50°
2026-05-05 18:02 34.12273 -82.70808 28993 ft 516 kts 52°
2026-05-05 18:03 34.16053 -82.63567 28306 ft 503 kts 51°
2026-05-05 18:03 34.17988 -82.60081 27645 ft 497 kts 50°
2026-05-05 18:03 34.19901 -82.56649 26992 ft 490 kts 51°
2026-05-05 18:03 34.21743 -82.53187 26340 ft 484 kts 52°
2026-05-05 18:04 34.23483 -82.49791 25721 ft 479 kts 53°
2026-05-05 18:04 34.25251 -82.46407 25100 ft 474 kts 52°
2026-05-05 18:04 34.27063 -82.43092 24481 ft 467 kts 51°
2026-05-05 18:04 34.28860 -82.39848 23875 ft 462 kts 51°
2026-05-05 18:05 34.30598 -82.36594 23256 ft 457 kts 53°
2026-05-05 18:05 34.32247 -82.33372 22990 ft 443 kts 54°
2026-05-05 18:05 34.33862 -82.30247 22707 ft 434 kts 53°
2026-05-05 18:05 34.35497 -82.27223 22423 ft 426 kts 52°
2026-05-05 18:06 34.37112 -82.24292 22147 ft 421 kts 52°
2026-05-05 18:06 34.37654 -82.23291 22053 ft 421 kts 52°
2026-05-05 18:06 34.40256 -82.18299 21587 ft 423 kts 54°